Weather History for PAGY - November, 2011

Change the Weather History Date:

Friday, November 11, 2011

  Actual Average Record
Temperature  
Mean Temperature 30 °F -  
Max Temperature 34 °F 38 °F 47 °F (1993)
Min Temperature 26 °F 31 °F -1 °F (1989)
Degree Days  
Heating Degree Days 35    
Moisture  
Dew Point 24 °F    
Average Humidity 81    
Maximum Humidity 100    
Minimum Humidity 61    
Precipitation  
Precipitation 0.08 in - - ()
Sea Level Pressure  
Sea Level Pressure 29.55 in    
Wind  
Wind Speed 1 mph (NNE)    
Max Wind Speed 5 mph    
Max Gust Speed -    
Visibility 8 miles    
Events Snow    
Averages and records for this station are not official NWS values.
T = Trace of Precipitation, MM = Missing Value Source: NWS Daily Summary

Daily Weather History Graph

Daily Weather History Graph

Search for Another Location

Airport or City:

Trip Planner

Search our weather history database for the weather conditions in past years. The results will help you decide how hot, cold, wet, or windy it might be!

Date:

Astronomy

Nov. 11, 2011 Rise Set
Actual Time 7:46 AM AKST 3:43 PM AKST
Civil Twilight 6:59 AM AKST 4:30 PM AKST
Nautical Twilight 6:08 AM AKST 5:20 PM AKST
Astronomical Twilight 5:21 AM AKST 6:08 PM AKST
Moon 3:49 PM AKST (11/11) 9:08 AM AKST (11/11)
Length of Visible Light 9h 31m
Length of Day
7h 57m
Full, 99% of the Moon is Illuminated
Nov 11
Full
Nov 18
Last Quarter
Nov 24
New
Dec 2
First Quarter
Dec 10
Full

Hourly Weather History & Observations

Time (AKST) Temp. Windchill Dew Point Humidity Pressure Visibility Wind Dir Wind Speed Gust Speed Precip Events Conditions
12:53 AM 33.1 °F - 32.0 °F 96% 29.44 in 10.0 mi Calm Calm - N/A   Overcast
1:53 AM 32.0 °F - 32.0 °F 100% 29.48 in 10.0 mi Calm Calm - N/A   Overcast
3:53 AM 32.0 °F 28.7 °F 30.0 °F 92% 29.55 in 10.0 mi NNE 3.5 mph - N/A   Scattered Clouds
4:53 AM 34.0 °F 29.8 °F 28.9 °F 82% 29.59 in 10.0 mi North 4.6 mph - N/A   Overcast
5:53 AM 30.9 °F 27.5 °F 28.0 °F 89% 29.62 in 10.0 mi NNW 3.5 mph - N/A   Mostly Cloudy
6:53 AM 33.1 °F - 26.1 °F 75% 29.65 in 10.0 mi Calm Calm - N/A   Partly Cloudy
7:53 AM 30.9 °F - 24.1 °F 76% 29.68 in 10.0 mi Calm Calm - N/A   Clear
8:53 AM 30.9 °F 26.2 °F 23.0 °F 72% 29.70 in 10.0 mi Variable 4.6 mph - N/A   Clear
9:53 AM 28.0 °F - 26.1 °F 92% 29.72 in 10.0 mi Calm Calm - N/A   Clear
10:53 AM 28.9 °F 23.9 °F 26.1 °F 89% 29.73 in 10.0 mi NE 4.6 mph - N/A   Clear
11:53 AM 32.0 °F 28.7 °F 24.1 °F 73% 29.72 in 10.0 mi Variable 3.5 mph - N/A   Clear
12:53 PM 33.1 °F 28.7 °F 21.0 °F 61% 29.71 in 10.0 mi Variable 4.6 mph - N/A   Clear
1:53 PM 32.0 °F 28.7 °F 21.2 °F 64% 29.71 in 10.0 mi NE 3.5 mph - N/A   Clear
2:53 PM 30.9 °F - 19.9 °F 64% 29.68 in 10.0 mi Calm Calm - N/A   Clear
3:53 PM 28.9 °F - 19.9 °F 69% 29.67 in 10.0 mi Calm Calm - N/A   Clear
4:53 PM 27.0 °F - 21.9 °F 81% 29.64 in 10.0 mi Calm Calm - N/A   Clear
5:53 PM 27.0 °F - 21.0 °F 78% 29.61 in 10.0 mi Calm Calm - N/A   Partly Cloudy
6:53 PM 28.0 °F - 19.9 °F 72% 29.57 in 10.0 mi Calm Calm - N/A   Overcast
7:53 PM 28.0 °F - 21.0 °F 75% 29.52 in 10.0 mi Calm Calm - N/A   Overcast
8:53 PM 27.0 °F - 23.0 °F 85% 29.46 in 10.0 mi Calm Calm - N/A   Overcast
9:44 PM 28.4 °F - 21.2 °F 74% 29.42 in 6.0 mi Calm Calm - 0.00 in Snow Light Snow
9:53 PM 27.0 °F - 21.9 °F 81% 29.41 in 1.8 mi Calm Calm - 0.00 in Snow Light Snow
9:57 PM 26.6 °F - 21.2 °F 80% 29.41 in 1.2 mi Calm Calm - 0.00 in Snow Light Snow
10:05 PM 26.6 °F - 23.0 °F 86% 29.40 in 0.8 mi Calm Calm - 0.00 in Snow Light Snow
10:26 PM 26.6 °F - 24.8 °F 93% 29.38 in 1.2 mi Calm Calm - 0.01 in Snow Light Snow
10:53 PM 26.1 °F - 24.1 °F 92% 29.34 in 1.0 mi Calm Calm - 0.03 in Snow Light Snow
11:30 PM 26.6 °F - 24.8 °F 93% 29.29 in 0.8 mi Calm Calm - 0.03 in Snow Light Snow
11:53 PM 26.1 °F - 24.1 °F 92% 29.26 in 0.8 mi Calm Calm - 0.05 in Snow Light Snow